Regional Weather Roundup
Issued by NWS Northern Indiana

Home | Current Version | Previous Version | Text Only | Print | Product List | Glossary On
Versions: 1 2 3 4 5 6 7 8 9 10 11 12 13 14 15 16 17 18 19 20 21 22 23 24 25 26 27 28 29 30 31 32 33 34 35 36 37 38 39 40 41 42 43 44 45 46 47 48 49 50
000
ASUS43 KIWX 292310
RWRIWX

KIWX WEATHER ROUNDUP
NATIONAL WEATHER SERVICE NORTHERN INDIANA
700 PM EDT SUN MAR 29 2015

NOTE: "FAIR" INDICATES FEW OR NO CLOUDS BELOW 12,000 FEET WITH NO
SIGNIFICANT WEATHER AND/OR OBSTRUCTIONS TO VISIBILITY.

* THESE STATIONS ARE NOT UNDER NWS QUALITY CONTROL. THEY ALSO MAY NOT
  REPORT WEATHER SUCH AS PRECIPITATION OR FOG.

INZ001>027-300000-
NORTHERN INDIANA

CITY           SKY/WX    TMP DP  RH WIND       PRES   REMARKS
GARY*          PTSUNNY   48  30  49 SW13G24   29.80F
VALPARAISO     PTSUNNY   44  33  65 SW20      29.83F
MICHIGAN CITY* PTSUNNY   43  28  56 SW18      29.82F
LAPORTE*       CLOUDY    44  33  65 SW16G24   29.84F
KNOX*            N/A     41  19  42 SW20G26   29.85S
SOUTH BEND     CLOUDY    42  28  57 SW17G26   29.84F
GOSHEN         CLOUDY    39  28  64 SW17      29.85F
MONTICELLO*    PTSUNNY   42  33  68 SW18G25   29.87F
LOGANSPORT*    CLOUDY    41  32  70 S13       29.89F
ROCHESTER*     CLOUDY    43  30  61 SW13      29.88F
WARSAW*        CLOUDY    39  28  65 SW8       29.86F
ANGOLA*        CLOUDY    39  25  56 SW14      29.85F
FORT WAYNE     LGT RAIN  41  26  55 SW16      29.90R
HUNTINGTON*    CLOUDY    42  21  42 SW13G21   29.89S
PERU/GRISSOM   CLOUDY    41  30  63 SW15      29.88F
MARION*        LGT RAIN  37  30  75 SW9       29.92S

$$
INZ028>050-300000-
CENTRAL INDIANA

CITY           SKY/WX    TMP DP  RH WIND       PRES   REMARKS
LAFAYETTE      CLOUDY    44  33  65 S9        29.90F
KOKOMO*          N/A     39  30  70 SW13      29.90F
MUNCIE*        LGT RAIN  42  28  57 SW10      29.92R
INDIANAPOLIS   LGT RAIN  43  34  70 S17       29.87F

$$
MIZ043>046-050>051-056>058-064>065-071>073-077>080-300000-
SOUTHWEST LOWER MICHIGAN

CITY           SKY/WX    TMP DP  RH WIND       PRES   REMARKS
BATTLE CREEK   CLOUDY    38  26  62 SW23G30   29.81F
BENTON HARBOR  CLOUDY    40  29  64 S15G22    29.79F
COLDWATER*     CLOUDY    38  24  57 SW15G28   29.84F
HILLSDALE*     CLOUDY    38  24  57 S10G18    29.83F
HOLLAND        CLOUDY    40  28  62 SW31G41   29.74F
GRAND RAPIDS   CLOUDY    37  27  67 SW22G32   29.74F
KALAMAZOO      CLOUDY    38  26  62 S17       29.81F
STURGIS*       CLOUDY    37  27  65 S18G24    29.83F
THREE RIVERS*  CLOUDY    38  28  69 SW14      29.83F

$$
OHZ001>008-015>018-024>025-300000-
NORTHWEST OHIO

CITY           SKY/WX    TMP DP  RH WIND       PRES   REMARKS
WAUSEON*       CLOUDY    39  25  56 SW14      29.89R
DEFIANCE       LGT RAIN  41  25  53 SW10      29.90
FINDLAY        CLOUDY    43  22  43 S23G29    29.88F
TOLEDO EXPRESS CLOUDY    41  22  46 SW12      29.88F
TOLEDO METCALF CLOUDY    42  23  46 S17G32    29.88F
LIMA           LGT RAIN  43  24  47 S14       29.88F

$$
AND FOR LAKE MICHIGAN COASTAL AND OPEN LAKE BUOY OBSERVATIONS

STATION/POSITION TEMP    WIND        PRES    VSBY  WAVE
                 AIR SEA DIR/SP/G                  HT/PER
                 (F)     (DEG/KT/KT) (MB)    (MI)  (FT/S)
CALUMET HARBOR    47     200/ 14/ 22 1007.2F
MICHIGAN CITY     43     170/ 19/ 24   N/A
BURNS HARBOR      44     210/ 19/ 26 1009.8S
SAINT JOSEPH      42     180/ 17/ 23 1008.8F

$$
&&


USA.gov is the U.S. government's official web portal to all federal, state and local government web resources and services.